S. Samuele Di Caferio, Italy

11:09 PM CET on December 06, 2016 (GMT +0100)
Amendola Mil

Weather History for LIBA - October, 2012

Change the Weather History Date:

Wednesday, October 31, 2012

  Actual Average Record
Temperature  
Mean Temperature 56 °F -  
Max Temperature 63 °F 67 °F 82 °F (2004)
Min Temperature 48 °F 50 °F 44 °F (2006)
Degree Days  
Heating Degree Days 10    
Growing Degree Days 6 (Base 50)    
Moisture  
Dew Point 53 °F    
Average Humidity 84    
Maximum Humidity 94    
Minimum Humidity 69    
Precipitation  
Precipitation 0.12 in - - ()
Sea Level Pressure  
Sea Level Pressure 29.73 in    
Wind  
Wind Speed 8 mph ()    
Max Wind Speed 17 mph    
Max Gust Speed -    
Visibility 4.9 miles    
Events Rain    
Averages and records for this station are not official NWS values.
T = Trace of Precipitation, MM = Missing Value Source: Averaged Metar Reports

Daily Weather History Graph

Daily Weather History Graph

Search for Another Location

Airport or City:

Trip Planner

Search our weather history database for the weather conditions in past years. The results will help you decide how hot, cold, wet, or windy it might be!

Date:

Astronomy

Oct. 31, 2012 Rise Set
Actual Time 6:27 AM CET 4:52 PM CET
Civil Twilight 5:59 AM CET 5:21 PM CET
Nautical Twilight 5:26 AM CET 5:54 PM CET
Astronomical Twilight 4:54 AM CET 6:26 PM CET
Moon 5:50 PM CET (10/31) 7:54 AM CET (10/31)
Length of Visible Light 11h 22m
Length of Day
10h 24m
Full, 98% of the Moon is Illuminated
Oct 31
Full
Nov 7
Last Quarter
Nov 13
New
Nov 20
First Quarter
Nov 28
Full

Hourly Weather History & Observations

Time (CET) Temp. Dew Point Humidity Pressure Visibility Wind Dir Wind Speed Gust Speed Precip Events Conditions
5:55 AM 50.0 °F 48.2 °F 94% 29.83 in 6.2 mi ESE 5.8 mph - N/A   Partly Cloudy
6:55 AM 48.2 °F 46.4 °F 93% 29.83 in 6.2 mi East 3.5 mph - N/A   Partly Cloudy
7:00 AM 49 °F 46 °F 87% 29.85 in 9 mi East 3.5 mph - -   Scattered Clouds
7:55 AM 48.2 °F 46.4 °F 93% 29.83 in 6.2 mi East 5.8 mph - N/A   Partly Cloudy
8:55 AM 53.6 °F 48.2 °F 82% 29.83 in 6.2 mi East 8.1 mph - N/A   Scattered Clouds
9:55 AM 59.0 °F 51.8 °F 77% 29.80 in 6.2 mi East 12.7 mph - N/A   Scattered Clouds
10:00 AM 60 °F 53 °F 69% 29.82 in 12 mi East 12.7 mph - -   Partly Cloudy
10:55 AM 60.8 °F 53.6 °F 77% 29.77 in 6.2 mi ESE 17.3 mph - N/A   Partly Cloudy
11:55 AM 62.6 °F 53.6 °F 72% 29.74 in 6.2 mi East 15.0 mph - N/A   Scattered Clouds
12:55 PM 62.6 °F 55.4 °F 77% 29.71 in 5.0 mi East 13.8 mph - N/A   Scattered Clouds
1:00 PM 63 °F 56 °F 70% 29.73 in 5 mi East 13.8 mph - -   Mist
1:55 PM 62.6 °F 60.8 °F 94% 29.71 in 3.1 mi East 11.5 mph - N/A Rain Light Rain
2:55 PM 62.6 °F 59.0 °F 88% 29.68 in 3.1 mi ESE 10.4 mph - N/A Rain Light Rain
3:55 PM 59.0 °F 57.2 °F 94% 29.65 in 3.1 mi East 12.7 mph - N/A Rain Light Rain
4:00 PM 60 °F 57 °F 86% 29.68 in 2 mi East 12.7 mph - - Rain Light Rain
4:55 PM 59.0 °F 55.4 °F 88% 29.65 in 2.5 mi East 11.5 mph - N/A Rain Light Rain
5:55 PM 59.0 °F 55.4 °F 88% 29.62 in 2.5 mi Calm Calm - N/A Rain Light Rain
6:55 PM 59.0 °F 53.6 °F 82% 29.59 in 2.5 mi East 13.8 mph - N/A Rain Light Rain
7:00 PM 59 °F 54 °F 77% 29.60 in 2 mi East 13.8 mph - -   Overcast
7:55 PM 59.0 °F 53.6 °F 82% 29.59 in 2.5 mi East 11.5 mph - N/A Rain Light Rain